Location: York
(31.8935°S, 116.7682°E)
Time: 11:00:14
(UTC+08:00)

PSAT 2 - Visible Passes

Search period start: 05 August 2021 00:00
Search period end: 15 August 2021 00:00
Orbit: 300 x 740 km, 28.5° (Epoch: 04 August)

Date Brightness Start Highest point End Pass type
(mag) Time Alt. Az. Time Alt. Az. Time Alt. Az.
05 Aug ? 04:24:16 15° NNE 04:24:19 15° NNE 04:27:20 10° ENE visible
05 Aug ? 05:59:57 10° NW 06:04:44 39° NNE 06:09:45 10° E visible
06 Aug ? 04:08:57 15° NE 04:08:57 15° NE 04:10:48 10° ENE visible
06 Aug ? 05:43:55 14° NW 05:47:56 42° NNE 05:53:00 10° E visible
07 Aug ? 03:53:29 12° ENE 03:53:29 12° ENE 03:54:10 10° ENE visible
07 Aug ? 05:28:27 24° NW 05:31:06 45° NNE 05:36:11 10° E visible
08 Aug ? 05:12:52 37° NNW 05:14:15 48° NNE 05:19:18 10° E visible
09 Aug ? 04:57:10 49° N 04:57:22 50° N 05:02:21 10° E visible
10 Aug ? 04:41:24 44° NE 04:41:24 44° NE 04:45:22 10° E visible
10 Aug ? 06:16:32 10° W 06:21:18 57° N 06:26:29 10° ENE visible
11 Aug ? 04:25:33 31° ENE 04:25:33 31° ENE 04:28:20 10° E visible
11 Aug ? 06:00:31 15° W 06:04:21 54° N 06:09:26 10° ENE visible
12 Aug ? 04:09:41 20° ENE 04:09:41 20° ENE 04:11:15 10° E visible
12 Aug ? 05:44:38 22° WNW 05:47:23 50° N 05:52:18 10° ENE visible
13 Aug ? 03:53:47 12° E 03:53:47 12° E 03:54:09 10° E visible
13 Aug ? 05:28:43 31° WNW 05:30:23 46° N 05:35:08 10° ENE visible
14 Aug ? 05:12:48 39° NNW 05:13:22 42° N 05:17:54 10° ENE visible
